Time,TemperatureF,DewpointF,PressureIn,WindDirection,WindDirectionDegrees,WindSpeedMPH,WindSpeedGustMPH,Humidity,HourlyPrecipIn,Conditions,Clouds,dailyrainin,SoftwareType,DateUTC
2013-09-18 00:01:00,43.6,41.4,30.31,ENE,64,0.0,0.0,92,0.00,,,0.00,LWC V2.11 B50,2013-09-18 04:01:00,
2013-09-18 00:02:00,43.6,41.4,30.31,ENE,65,0.0,0.0,92,0.00,,,0.00,LWC V2.11 B50,2013-09-18 04:02:00,
2013-09-18 00:07:00,43.6,41.7,30.31,ENE,65,0.0,0.0,93,0.00,,,0.00,LWC V2.11 B50,2013-09-18 04:07:00,
2013-09-18 00:12:00,43.6,41.7,30.31,ENE,65,0.0,0.0,93,0.00,,,0.00,LWC V2.11 B50,2013-09-18 04:12:00,
2013-09-18 00:17:00,43.6,41.7,30.31,ENE,64,0.0,0.0,93,0.00,,,0.00,LWC V2.11 B50,2013-09-18 04:17:00,
2013-09-18 00:22:00,43.4,41.5,30.31,ENE,64,0.0,0.0,93,0.00,,,0.00,LWC V2.11 B50,2013-09-18 04:22:00,
2013-09-18 00:27:00,43.3,41.1,30.31,ENE,65,0.0,0.0,92,0.00,,,0.00,LWC V2.11 B50,2013-09-18 04:27:00,
2013-09-18 00:32:00,43.2,41.0,30.31,ENE,65,0.0,0.0,92,0.00,,,0.00,LWC V2.11 B50,2013-09-18 04:32:00,
2013-09-18 00:37:00,43.0,41.1,30.31,ENE,65,0.0,0.0,93,0.00,,,0.00,LWC V2.11 B50,2013-09-18 04:37:00,
2013-09-18 00:42:00,42.9,41.0,30.31,ENE,64,0.0,0.0,93,0.00,,,0.00,LWC V2.11 B50,2013-09-18 04:42:00,
2013-09-18 00:47:00,42.8,40.9,30.31,ENE,65,0.0,0.0,93,0.00,,,0.00,LWC V2.11 B50,2013-09-18 04:47:00,
2013-09-18 00:52:00,42.7,40.8,30.31,ENE,64,0.0,0.0,93,0.00,,,0.00,LWC V2.11 B50,2013-09-18 04:52:00,
2013-09-18 00:57:00,42.7,40.8,30.30,ENE,64,0.0,0.0,93,0.00,,,0.00,LWC V2.11 B50,2013-09-18 04:57:00,
2013-09-18 01:02:00,42.6,40.7,30.31,ENE,65,0.0,0.0,93,0.00,,,0.00,LWC V2.11 B50,2013-09-18 05:02:00,
2013-09-18 01:07:00,42.5,40.6,30.31,ENE,65,0.0,0.0,93,0.00,,,0.00,LWC V2.11 B50,2013-09-18 05:07:00,
2013-09-18 01:12:00,42.5,40.6,30.30,ENE,65,0.0,0.0,93,0.00,,,0.00,LWC V2.11 B50,2013-09-18 05:12:00,
2013-09-18 01:17:00,42.4,40.5,30.31,ENE,64,0.0,0.0,93,0.00,,,0.00,LWC V2.11 B50,2013-09-18 05:17:00,
2013-09-18 01:22:00,42.3,40.4,30.30,ENE,65,0.0,0.0,93,0.00,,,0.00,LWC V2.11 B50,2013-09-18 05:22:00,
2013-09-18 01:27:00,42.3,40.4,30.30,ENE,65,0.0,0.0,93,0.00,,,0.00,LWC V2.11 B50,2013-09-18 05:27:00,
2013-09-18 01:32:00,42.2,40.3,30.30,ENE,64,0.0,0.0,93,0.00,,,0.00,LWC V2.11 B50,2013-09-18 05:32:00,
2013-09-18 01:33:00,42.3,40.4,30.31,ENE,65,0.0,0.0,93,0.00,,,0.00,LWC V2.11 B50,2013-09-18 05:33:00,
2013-09-18 01:38:00,42.2,40.3,30.31,ENE,65,0.0,0.0,93,0.00,,,0.00,LWC V2.11 B50,2013-09-18 05:38:00,
2013-09-18 01:43:00,42.1,40.2,30.31,ENE,65,0.0,0.0,93,0.00,,,0.00,LWC V2.11 B50,2013-09-18 05:43:00,
2013-09-18 01:48:00,42.0,40.1,30.31,ENE,64,0.0,0.0,93,0.00,,,0.00,LWC V2.11 B50,2013-09-18 05:48:00,
2013-09-18 01:53:00,41.9,40.0,30.30,ENE,65,0.0,0.0,93,0.00,,,0.00,LWC V2.11 B50,2013-09-18 05:53:00,
2013-09-18 01:58:00,41.8,39.9,30.30,ENE,64,0.0,0.0,93,0.00,,,0.00,LWC V2.11 B50,2013-09-18 05:58:00,
2013-09-18 02:03:00,41.6,40.0,30.30,ENE,64,0.0,0.0,94,0.00,,,0.00,LWC V2.11 B50,2013-09-18 06:03:00,
2013-09-18 02:08:00,41.6,40.0,30.30,ENE,65,0.0,0.0,94,0.00,,,0.00,LWC V2.11 B50,2013-09-18 06:08:00,
2013-09-18 02:13:00,41.6,40.0,30.30,ENE,65,0.0,0.0,94,0.00,,,0.00,LWC V2.11 B50,2013-09-18 06:13:00,
2013-09-18 02:18:00,41.6,40.0,30.30,ENE,64,0.0,0.0,94,0.00,,,0.00,LWC V2.11 B50,2013-09-18 06:18:00,
2013-09-18 02:23:00,41.5,39.9,30.30,ENE,64,0.0,0.0,94,0.00,,,0.00,LWC V2.11 B50,2013-09-18 06:23:00,
2013-09-18 02:28:00,41.4,39.8,30.30,ENE,65,0.0,0.0,94,0.00,,,0.00,LWC V2.11 B50,2013-09-18 06:28:00,
2013-09-18 02:33:00,41.4,39.8,30.31,ENE,64,0.0,0.0,94,0.00,,,0.00,LWC V2.11 B50,2013-09-18 06:33:00,
2013-09-18 02:38:00,41.4,39.8,30.30,ENE,64,0.0,0.0,94,0.00,,,0.00,LWC V2.11 B50,2013-09-18 06:38:00,
2013-09-18 02:43:00,41.3,39.7,30.30,ENE,65,0.0,0.0,94,0.00,,,0.00,LWC V2.11 B50,2013-09-18 06:43:00,
2013-09-18 02:48:00,41.3,39.7,30.30,ENE,65,0.0,0.0,94,0.00,,,0.00,LWC V2.11 B50,2013-09-18 06:48:00,
2013-09-18 02:53:00,41.3,39.7,30.30,ENE,65,0.0,0.0,94,0.00,,,0.00,LWC V2.11 B50,2013-09-18 06:53:00,
2013-09-18 02:58:00,41.2,39.6,30.30,ENE,64,0.0,0.0,94,0.00,,,0.00,LWC V2.11 B50,2013-09-18 06:58:00,
2013-09-18 03:03:00,41.2,39.6,30.30,ENE,65,0.0,0.0,94,0.00,,,0.00,LWC V2.11 B50,2013-09-18 07:03:00,
2013-09-18 03:08:00,41.1,39.5,30.30,ENE,64,0.0,0.0,94,0.00,,,0.00,LWC V2.11 B50,2013-09-18 07:08:00,
2013-09-18 03:13:00,41.0,39.4,30.30,ENE,64,0.0,0.0,94,0.00,,,0.00,LWC V2.11 B50,2013-09-18 07:13:00,
2013-09-18 03:18:00,40.9,39.3,30.30,ENE,65,0.0,0.0,94,0.00,,,0.00,LWC V2.11 B50,2013-09-18 07:18:00,
2013-09-18 03:23:00,40.9,39.3,30.30,ENE,65,0.0,0.0,94,0.00,,,0.00,LWC V2.11 B50,2013-09-18 07:23:00,
2013-09-18 03:28:00,40.8,39.2,30.30,ENE,65,0.0,0.0,94,0.00,,,0.00,LWC V2.11 B50,2013-09-18 07:28:00,
2013-09-18 03:33:00,40.7,39.1,30.30,ENE,64,0.0,0.0,94,0.00,,,0.00,LWC V2.11 B50,2013-09-18 07:33:00,
2013-09-18 03:38:00,40.6,39.0,30.30,ENE,64,0.0,0.0,94,0.00,,,0.00,LWC V2.11 B50,2013-09-18 07:38:00,
2013-09-18 03:43:00,40.6,39.0,30.30,ENE,65,0.0,0.0,94,0.00,,,0.00,LWC V2.11 B50,2013-09-18 07:43:00,
2013-09-18 03:48:00,40.5,38.9,30.29,ENE,64,0.0,0.0,94,0.00,,,0.00,LWC V2.11 B50,2013-09-18 07:48:00,
2013-09-18 03:53:00,40.5,38.9,30.29,ENE,64,0.0,0.0,94,0.00,,,0.00,LWC V2.11 B50,2013-09-18 07:53:00,
2013-09-18 03:58:00,40.5,38.9,30.29,ENE,65,0.0,0.0,94,0.00,,,0.00,LWC V2.11 B50,2013-09-18 07:58:00,
2013-09-18 04:03:00,40.6,39.0,30.30,ENE,65,0.0,0.0,94,0.00,,,0.00,LWC V2.11 B50,2013-09-18 08:03:00,
2013-09-18 04:08:00,40.6,39.0,30.29,ENE,65,0.0,0.0,94,0.00,,,0.00,LWC V2.11 B50,2013-09-18 08:08:00,
2013-09-18 04:13:00,40.5,38.9,30.29,ENE,64,0.0,0.0,94,0.00,,,0.00,LWC V2.11 B50,2013-09-18 08:13:00,
2013-09-18 04:18:00,40.4,38.8,30.29,ENE,65,0.0,0.0,94,0.00,,,0.00,LWC V2.11 B50,2013-09-18 08:18:00,
2013-09-18 04:23:00,40.3,38.7,30.29,ENE,64,0.0,0.0,94,0.00,,,0.00,LWC V2.11 B50,2013-09-18 08:23:00,
2013-09-18 04:28:00,40.3,39.0,30.29,ENE,65,0.0,0.0,95,0.00,,,0.00,LWC V2.11 B50,2013-09-18 08:28:00,
2013-09-18 04:33:00,40.4,39.1,30.29,ENE,65,0.0,0.0,95,0.00,,,0.00,LWC V2.11 B50,2013-09-18 08:33:00,
2013-09-18 04:38:00,40.3,39.0,30.29,ENE,65,0.0,0.0,95,0.00,,,0.00,LWC V2.11 B50,2013-09-18 08:38:00,
2013-09-18 04:43:00,40.2,38.9,30.29,ENE,65,0.0,0.0,95,0.00,,,0.00,LWC V2.11 B50,2013-09-18 08:43:00,
2013-09-18 04:48:00,40.1,38.5,30.29,ENE,64,0.0,0.0,94,0.00,,,0.00,LWC V2.11 B50,2013-09-18 08:48:00,
2013-09-18 04:53:00,39.9,38.3,30.29,ENE,65,0.0,0.0,94,0.00,,,0.00,LWC V2.11 B50,2013-09-18 08:53:00,
2013-09-18 04:58:00,39.8,38.2,30.29,ENE,65,0.0,0.0,94,0.00,,,0.00,LWC V2.11 B50,2013-09-18 08:58:00,
2013-09-18 05:03:00,39.8,38.2,30.29,ENE,65,0.0,0.0,94,0.00,,,0.00,LWC V2.11 B50,2013-09-18 09:03:00,
2013-09-18 05:08:00,39.8,38.2,30.29,ENE,65,0.0,0.0,94,0.00,,,0.00,LWC V2.11 B50,2013-09-18 09:08:00,
2013-09-18 05:13:00,39.7,38.4,30.29,ENE,65,0.0,0.0,95,0.00,,,0.00,LWC V2.11 B50,2013-09-18 09:13:00,
2013-09-18 05:18:00,39.7,38.4,30.29,ENE,65,0.0,0.0,95,0.00,,,0.00,LWC V2.11 B50,2013-09-18 09:18:00,
2013-09-18 05:23:00,39.6,38.3,30.29,ENE,64,0.0,0.0,95,0.00,,,0.00,LWC V2.11 B50,2013-09-18 09:23:00,
2013-09-18 05:28:00,39.6,38.3,30.28,ENE,65,0.0,0.0,95,0.00,,,0.00,LWC V2.11 B50,2013-09-18 09:28:00,
2013-09-18 05:33:00,39.5,38.2,30.28,ENE,65,0.0,0.0,95,0.00,,,0.00,LWC V2.11 B50,2013-09-18 09:33:00,
2013-09-18 05:38:00,39.4,37.8,30.28,ENE,65,0.0,0.0,94,0.00,,,0.00,LWC V2.11 B50,2013-09-18 09:38:00,
2013-09-18 05:43:00,39.3,37.7,30.29,ENE,65,0.0,0.0,94,0.00,,,0.00,LWC V2.11 B50,2013-09-18 09:43:00,
2013-09-18 05:48:00,39.2,37.9,30.29,ENE,65,0.0,0.0,95,0.00,,,0.00,LWC V2.11 B50,2013-09-18 09:48:00,
2013-09-18 05:53:00,39.0,37.7,30.29,ENE,65,0.0,0.0,95,0.00,,,0.00,LWC V2.11 B50,2013-09-18 09:53:00,
2013-09-18 05:58:00,38.9,37.3,30.29,ENE,64,0.0,0.0,94,0.00,,,0.00,LWC V2.11 B50,2013-09-18 09:58:00,
2013-09-18 06:03:00,38.8,37.5,30.29,ENE,65,0.0,0.0,95,0.00,,,0.00,LWC V2.11 B50,2013-09-18 10:03:00,
2013-09-18 06:08:00,38.7,37.4,30.29,ENE,65,0.0,0.0,95,0.00,,,0.00,LWC V2.11 B50,2013-09-18 10:08:00,
2013-09-18 06:13:00,38.7,37.4,30.29,ENE,65,0.0,0.0,95,0.00,,,0.00,LWC V2.11 B50,2013-09-18 10:13:00,
2013-09-18 06:18:00,38.7,37.4,30.29,ENE,64,0.0,0.0,95,0.00,,,0.00,LWC V2.11 B50,2013-09-18 10:18:00,
2013-09-18 06:23:00,38.7,37.4,30.29,ENE,65,0.0,0.0,95,0.00,,,0.00,LWC V2.11 B50,2013-09-18 10:23:00,
2013-09-18 06:28:00,38.6,37.3,30.29,ENE,65,0.0,0.0,95,0.00,,,0.00,LWC V2.11 B50,2013-09-18 10:28:00,
2013-09-18 06:33:00,38.6,37.3,30.29,ENE,65,0.0,0.0,95,0.00,,,0.00,LWC V2.11 B50,2013-09-18 10:33:00,
2013-09-18 06:38:00,38.6,37.3,30.29,ENE,64,0.0,0.0,95,0.00,,,0.00,LWC V2.11 B50,2013-09-18 10:38:00,
2013-09-18 06:43:00,38.6,37.3,30.29,ENE,65,0.0,0.0,95,0.00,,,0.00,LWC V2.11 B50,2013-09-18 10:43:00,
2013-09-18 06:48:00,38.6,37.3,30.29,ENE,65,0.0,0.0,95,0.00,,,0.00,LWC V2.11 B50,2013-09-18 10:48:00,
2013-09-18 06:53:00,38.6,37.3,30.29,ENE,65,0.0,0.0,95,0.00,,,0.00,LWC V2.11 B50,2013-09-18 10:53:00,
2013-09-18 06:58:00,38.6,37.3,30.29,ENE,65,0.0,0.0,95,0.00,,,0.00,LWC V2.11 B50,2013-09-18 10:58:00,
2013-09-18 07:03:00,38.6,37.3,30.29,ENE,65,0.0,0.0,95,0.00,,,0.00,LWC V2.11 B50,2013-09-18 11:03:00,
2013-09-18 07:08:00,38.6,37.3,30.29,ENE,64,0.0,0.0,95,0.00,,,0.00,LWC V2.11 B50,2013-09-18 11:08:00,
2013-09-18 07:13:00,38.6,37.3,30.29,ENE,64,0.0,0.0,95,0.00,,,0.00,LWC V2.11 B50,2013-09-18 11:13:00,
2013-09-18 07:18:00,38.6,37.3,30.29,ENE,65,0.0,0.0,95,0.00,,,0.00,LWC V2.11 B50,2013-09-18 11:18:00,
2013-09-18 07:23:00,38.7,37.4,30.29,ENE,65,0.0,0.0,95,0.00,,,0.00,LWC V2.11 B50,2013-09-18 11:23:00,
2013-09-18 07:28:00,38.7,37.4,30.29,ENE,65,0.0,0.0,95,0.00,,,0.00,LWC V2.11 B50,2013-09-18 11:28:00,
2013-09-18 07:33:00,38.9,37.6,30.30,ENE,64,0.0,0.0,95,0.00,,,0.00,LWC V2.11 B50,2013-09-18 11:33:00,
2013-09-18 07:38:00,39.2,37.9,30.30,ENE,65,0.0,0.0,95,0.00,,,0.00,LWC V2.11 B50,2013-09-18 11:38:00,
2013-09-18 07:43:00,39.9,38.9,30.30,ENE,65,0.0,0.0,96,0.00,,,0.00,LWC V2.11 B50,2013-09-18 11:43:00,
2013-09-18 07:48:00,40.5,39.5,30.30,ENE,64,0.0,0.0,96,0.00,,,0.00,LWC V2.11 B50,2013-09-18 11:48:00,
2013-09-18 07:53:00,41.4,40.3,30.29,ENE,64,0.0,0.0,96,0.00,,,0.00,LWC V2.11 B50,2013-09-18 11:53:00,
2013-09-18 07:58:00,42.7,41.6,30.30,ENE,65,0.0,0.0,96,0.00,,,0.00,LWC V2.11 B50,2013-09-18 11:58:00,
2013-09-18 08:03:00,44.4,43.6,30.30,ENE,65,0.0,0.0,97,0.00,,,0.00,LWC V2.11 B50,2013-09-18 12:03:00,
2013-09-18 08:08:00,46.4,45.3,30.30,ENE,64,0.0,0.0,96,0.00,,,0.00,LWC V2.11 B50,2013-09-18 12:08:00,
2013-09-18 08:13:00,47.2,46.4,30.30,ENE,64,0.0,0.0,97,0.00,,,0.00,LWC V2.11 B50,2013-09-18 12:13:00,
2013-09-18 08:18:00,47.6,46.8,30.30,ENE,65,0.0,0.0,97,0.00,,,0.00,LWC V2.11 B50,2013-09-18 12:18:00,
2013-09-18 08:23:00,48.1,47.3,30.30,ENE,65,0.0,0.0,97,0.00,,,0.00,LWC V2.11 B50,2013-09-18 12:23:00,
2013-09-18 08:28:00,48.6,47.8,30.29,ENE,64,0.0,0.0,97,0.00,,,0.00,LWC V2.11 B50,2013-09-18 12:28:00,
2013-09-18 08:33:00,49.3,48.5,30.29,ENE,65,0.0,0.0,97,0.00,,,0.00,LWC V2.11 B50,2013-09-18 12:33:00,
2013-09-18 08:38:00,49.7,48.9,30.29,ENE,65,0.0,0.0,97,0.00,,,0.00,LWC V2.11 B50,2013-09-18 12:38:00,
2013-09-18 08:43:00,50.4,49.6,30.29,ENE,64,0.0,0.0,97,0.00,,,0.00,LWC V2.11 B50,2013-09-18 12:43:00,
2013-09-18 08:48:00,51.1,50.0,30.29,ENE,64,0.0,0.0,96,0.00,,,0.00,LWC V2.11 B50,2013-09-18 12:48:00,
2013-09-18 08:53:00,51.9,50.8,30.29,ENE,65,0.0,0.0,96,0.00,,,0.00,LWC V2.11 B50,2013-09-18 12:53:00,
2013-09-18 08:58:00,52.6,51.2,30.29,ENE,59,0.0,0.0,95,0.00,,,0.00,LWC V2.11 B50,2013-09-18 12:58:00,
2013-09-18 09:03:00,53.6,51.9,30.29,ENE,59,0.0,0.0,94,0.00,,,0.00,LWC V2.11 B50,2013-09-18 13:03:00,
2013-09-18 09:08:00,54.4,51.5,30.30,ENE,59,0.0,0.0,90,0.00,,,0.00,LWC V2.11 B50,2013-09-18 13:08:00,
2013-09-18 09:13:00,55.1,51.0,30.30,NE,54,0.0,0.0,86,0.00,,,0.00,LWC V2.11 B50,2013-09-18 13:13:00,
2013-09-18 09:18:00,55.9,50.8,30.30,NE,54,0.0,0.0,83,0.00,,,0.00,LWC V2.11 B50,2013-09-18 13:18:00,
2013-09-18 09:24:00,56.4,49.6,30.30,ESE,121,0.0,0.0,78,0.00,,,0.00,LWC V2.11 B50,2013-09-18 13:24:00,
2013-09-18 09:29:00,56.8,49.3,30.30,ESE,121,0.0,0.0,76,0.00,,,0.00,LWC V2.11 B50,2013-09-18 13:29:00,
2013-09-18 09:34:00,57.2,49.7,30.30,SSE,163,0.0,0.0,76,0.00,,,0.00,LWC V2.11 B50,2013-09-18 13:34:00,
2013-09-18 09:39:00,57.6,48.6,30.30,SSE,168,0.0,0.0,72,0.00,,,0.00,LWC V2.11 B50,2013-09-18 13:39:00,
2013-09-18 09:44:00,57.8,48.5,30.30,SSW,202,0.0,0.0,71,0.00,,,0.00,LWC V2.11 B50,2013-09-18 13:44:00,
2013-09-18 09:49:00,58.4,49.8,30.30,SW,221,0.0,0.0,73,0.00,,,0.00,LWC V2.11 B50,2013-09-18 13:49:00,
2013-09-18 09:54:00,59.0,49.2,30.30,SW,222,0.0,0.0,70,0.00,,,0.00,LWC V2.11 B50,2013-09-18 13:54:00,
2013-09-18 09:59:00,59.2,49.4,30.30,WNW,302,0.0,0.0,70,0.00,,,0.00,LWC V2.11 B50,2013-09-18 13:59:00,
2013-09-18 10:04:00,59.3,49.1,30.29,West,261,0.0,0.0,69,0.00,,,0.00,LWC V2.11 B50,2013-09-18 14:04:00,
2013-09-18 10:09:00,59.5,49.7,30.29,West,261,0.0,0.0,70,0.00,,,0.00,LWC V2.11 B50,2013-09-18 14:09:00,
2013-09-18 10:14:00,60.0,49.4,30.29,West,262,0.0,0.0,68,0.00,,,0.00,LWC V2.11 B50,2013-09-18 14:14:00,
2013-09-18 10:19:00,60.2,50.0,30.29,WSW,250,0.0,0.0,69,0.00,,,0.00,LWC V2.11 B50,2013-09-18 14:19:00,
2013-09-18 10:24:00,60.4,49.4,30.29,WSW,241,0.0,0.0,67,0.00,,,0.00,LWC V2.11 B50,2013-09-18 14:24:00,
2013-09-18 10:29:00,60.3,50.1,30.29,WSW,243,0.0,0.0,69,0.00,,,0.00,LWC V2.11 B50,2013-09-18 14:29:00,
2013-09-18 10:34:00,60.7,49.7,30.29,WSW,246,0.0,0.0,67,0.00,,,0.00,LWC V2.11 B50,2013-09-18 14:34:00,
2013-09-18 10:39:00,61.1,48.4,30.28,WSW,253,0.0,0.0,63,0.00,,,0.00,LWC V2.11 B50,2013-09-18 14:39:00,
2013-09-18 10:44:00,61.1,48.8,30.28,SW,232,0.0,0.0,64,0.00,,,0.00,LWC V2.11 B50,2013-09-18 14:44:00,
2013-09-18 10:49:00,61.1,47.5,30.28,SW,227,0.0,0.0,61,0.00,,,0.00,LWC V2.11 B50,2013-09-18 14:49:00,
2013-09-18 10:54:00,61.2,48.1,30.28,SW,227,0.0,0.0,62,0.00,,,0.00,LWC V2.11 B50,2013-09-18 14:54:00,
2013-09-18 10:59:00,61.8,48.2,30.28,WSW,257,0.0,0.0,61,0.00,,,0.00,LWC V2.11 B50,2013-09-18 14:59:00,
2013-09-18 11:04:00,62.3,47.3,30.28,WSW,258,0.0,0.0,58,0.00,,,0.00,LWC V2.11 B50,2013-09-18 15:04:00,
2013-09-18 11:09:00,62.8,48.7,30.28,WSW,258,0.0,0.0,60,0.00,,,0.00,LWC V2.11 B50,2013-09-18 15:09:00,
2013-09-18 11:14:00,63.4,50.1,30.27,WSW,257,0.0,0.0,62,0.00,,,0.00,LWC V2.11 B50,2013-09-18 15:14:00,
2013-09-18 11:19:00,63.3,46.9,30.27,SW,225,0.0,0.0,55,0.00,,,0.00,LWC V2.11 B50,2013-09-18 15:19:00,
2013-09-18 11:24:00,63.0,48.0,30.27,SSW,213,0.0,0.0,58,0.00,,,0.00,LWC V2.11 B50,2013-09-18 15:24:00,
2013-09-18 11:29:00,63.0,46.6,30.27,SW,215,0.0,3.0,55,0.00,,,0.00,LWC V2.11 B50,2013-09-18 15:29:00,
2013-09-18 11:34:00,62.9,47.9,30.26,SW,221,0.0,0.0,58,0.00,,,0.00,LWC V2.11 B50,2013-09-18 15:34:00,
2013-09-18 11:39:00,63.3,47.3,30.26,SW,221,0.0,0.0,56,0.00,,,0.00,LWC V2.11 B50,2013-09-18 15:39:00,
2013-09-18 11:44:00,63.6,46.6,30.26,SW,221,0.0,0.0,54,0.00,,,0.00,LWC V2.11 B50,2013-09-18 15:44:00,
2013-09-18 11:49:00,63.8,47.3,30.26,NNW,330,0.0,0.0,55,0.00,,,0.00,LWC V2.11 B50,2013-09-18 15:49:00,
2013-09-18 11:54:00,63.8,48.3,30.26,NNW,336,0.0,0.0,57,0.00,,,0.00,LWC V2.11 B50,2013-09-18 15:54:00,
2013-09-18 11:59:00,64.4,47.9,30.26,NNW,336,0.0,0.0,55,0.00,,,0.00,LWC V2.11 B50,2013-09-18 15:59:00,
2013-09-18 12:01:00,64.5,48.4,30.26,NNW,337,0.0,0.0,56,0.00,,,0.00,LWC V2.11 B50,2013-09-18 16:01:00,
2013-09-18 12:06:00,65.2,48.6,30.26,NNW,335,0.0,0.0,55,0.00,,,0.00,LWC V2.11 B50,2013-09-18 16:06:00,
2013-09-18 12:11:00,65.2,48.1,30.26,SW,219,0.0,0.0,54,0.00,,,0.00,LWC V2.11 B50,2013-09-18 16:11:00,
2013-09-18 12:16:00,64.8,47.8,30.25,SW,217,0.0,0.0,54,0.00,,,0.00,LWC V2.11 B50,2013-09-18 16:16:00,
2013-09-18 12:21:00,64.9,45.3,30.26,SW,228,0.0,0.0,49,0.00,,,0.00,LWC V2.11 B50,2013-09-18 16:21:00,
2013-09-18 12:26:00,64.8,47.3,30.25,SW,236,0.0,0.0,53,0.00,,,0.00,LWC V2.11 B50,2013-09-18 16:26:00,
2013-09-18 12:31:00,64.8,46.2,30.24,SW,228,0.0,0.0,51,0.00,,,0.00,LWC V2.11 B50,2013-09-18 16:31:00,
2013-09-18 12:36:00,65.1,49.0,30.24,West,264,0.0,0.0,56,0.00,,,0.00,LWC V2.11 B50,2013-09-18 16:36:00,
2013-09-18 12:41:00,65.6,48.0,30.24,West,267,0.0,0.0,53,0.00,,,0.00,LWC V2.11 B50,2013-09-18 16:41:00,
2013-09-18 12:46:00,66.1,46.4,30.24,SW,219,0.0,0.0,49,0.00,,,0.00,LWC V2.11 B50,2013-09-18 16:46:00,
2013-09-18 12:51:00,66.1,46.9,30.24,WSW,237,0.0,0.0,50,0.00,,,0.00,LWC V2.11 B50,2013-09-18 16:51:00,
2013-09-18 12:57:00,66.3,46.0,30.24,NW,306,0.0,2.0,48,0.00,,,0.00,LWC V2.11 B50,2013-09-18 16:57:00,
2013-09-18 13:02:00,66.4,47.2,30.24,SW,225,0.0,0.0,50,0.00,,,0.00,LWC V2.11 B50,2013-09-18 17:02:00,
2013-09-18 13:07:00,66.8,47.0,30.24,SW,233,6.0,6.0,49,0.00,,,0.00,LWC V2.11 B50,2013-09-18 17:07:00,
2013-09-18 13:12:00,66.8,46.5,30.24,SSW,207,0.0,4.0,48,0.00,,,0.00,LWC V2.11 B50,2013-09-18 17:12:00,
2013-09-18 13:17:00,67.1,48.9,30.23,NW,309,0.0,0.0,52,0.00,,,0.00,LWC V2.11 B50,2013-09-18 17:17:00,
2013-09-18 13:22:00,67.4,48.1,30.23,WNW,300,0.0,0.0,50,0.00,,,0.00,LWC V2.11 B50,2013-09-18 17:22:00,
2013-09-18 13:27:00,67.6,48.8,30.23,West,260,0.0,0.0,51,0.00,,,0.00,LWC V2.11 B50,2013-09-18 17:27:00,
2013-09-18 13:32:00,67.7,48.4,30.22,WNW,291,0.0,0.0,50,0.00,,,0.00,LWC V2.11 B50,2013-09-18 17:32:00,
2013-09-18 13:37:00,67.9,48.6,30.22,SW,215,3.0,5.0,50,0.00,,,0.00,LWC V2.11 B50,2013-09-18 17:37:00,
2013-09-18 13:42:00,67.8,46.8,30.22,WSW,238,0.0,4.0,47,0.00,,,0.00,LWC V2.11 B50,2013-09-18 17:42:00,
2013-09-18 13:47:00,67.7,47.3,30.22,SSW,205,0.0,6.0,48,0.00,,,0.00,LWC V2.11 B50,2013-09-18 17:47:00,
2013-09-18 13:52:00,67.1,46.2,30.22,NW,325,0.0,0.0,47,0.00,,,0.00,LWC V2.11 B50,2013-09-18 17:52:00,
2013-09-18 13:57:00,67.2,47.4,30.21,North,351,0.0,0.0,49,0.00,,,0.00,LWC V2.11 B50,2013-09-18 17:57:00,
2013-09-18 14:02:00,67.5,46.6,30.21,SSW,212,0.0,5.0,47,0.00,,,0.00,LWC V2.11 B50,2013-09-18 18:02:00,
2013-09-18 14:07:00,67.7,46.2,30.21,SW,214,0.0,1.0,46,0.00,,,0.00,LWC V2.11 B50,2013-09-18 18:07:00,
2013-09-18 14:12:00,68.0,46.4,30.21,West,272,0.0,0.0,46,0.00,,,0.00,LWC V2.11 B50,2013-09-18 18:12:00,
2013-09-18 14:17:00,68.3,48.4,30.21,SW,225,0.0,0.0,49,0.00,,,0.00,LWC V2.11 B50,2013-09-18 18:17:00,
2013-09-18 14:22:00,68.8,48.8,30.21,SW,216,0.0,0.0,49,0.00,,,0.00,LWC V2.11 B50,2013-09-18 18:22:00,
2013-09-18 14:28:00,69.1,45.0,30.21,SW,216,0.0,0.0,42,0.00,,,0.00,LWC V2.11 B50,2013-09-18 18:28:00,
2013-09-18 14:33:00,69.2,46.3,30.20,SW,218,3.0,5.0,44,0.00,,,0.00,LWC V2.11 B50,2013-09-18 18:33:00,
2013-09-18 14:38:00,69.0,46.2,30.20,SSW,206,0.0,1.0,44,0.00,,,0.00,LWC V2.11 B50,2013-09-18 18:38:00,
2013-09-18 14:43:00,68.8,46.0,30.20,WSW,237,0.0,0.0,44,0.00,,,0.00,LWC V2.11 B50,2013-09-18 18:43:00,
2013-09-18 14:48:00,68.9,45.5,30.20,SW,234,0.0,0.0,43,0.00,,,0.00,LWC V2.11 B50,2013-09-18 18:48:00,
2013-09-18 14:53:00,69.1,46.3,30.19,SW,236,0.0,0.0,44,0.00,,,0.00,LWC V2.11 B50,2013-09-18 18:53:00,
2013-09-18 14:58:00,69.3,47.0,30.19,SSW,204,0.0,4.0,45,0.00,,,0.00,LWC V2.11 B50,2013-09-18 18:58:00,
2013-09-18 15:03:00,69.3,47.0,30.19,SSW,213,0.0,0.0,45,0.00,,,0.00,LWC V2.11 B50,2013-09-18 19:03:00,
2013-09-18 15:08:00,69.2,47.5,30.19,SW,221,0.0,5.0,46,0.00,,,0.00,LWC V2.11 B50,2013-09-18 19:08:00,
2013-09-18 15:13:00,69.4,47.1,30.19,SW,221,0.0,6.0,45,0.00,,,0.00,LWC V2.11 B50,2013-09-18 19:13:00,
2013-09-18 15:18:00,69.7,48.6,30.18,SW,221,0.0,0.0,47,0.00,,,0.00,LWC V2.11 B50,2013-09-18 19:18:00,
2013-09-18 15:23:00,70.1,47.2,30.18,SW,221,0.0,0.0,44,0.00,,,0.00,LWC V2.11 B50,2013-09-18 19:23:00,
2013-09-18 15:28:00,70.3,47.9,30.18,SW,222,0.0,0.0,45,0.00,,,0.00,LWC V2.11 B50,2013-09-18 19:28:00,
2013-09-18 15:33:00,70.5,49.3,30.17,SW,225,0.0,0.0,47,0.00,,,0.00,LWC V2.11 B50,2013-09-18 19:33:00,
2013-09-18 15:38:00,70.0,47.1,30.17,WSW,256,0.0,1.0,44,0.00,,,0.00,LWC V2.11 B50,2013-09-18 19:38:00,
2013-09-18 15:43:00,70.1,48.9,30.17,WSW,248,0.0,0.0,47,0.00,,,0.00,LWC V2.11 B50,2013-09-18 19:43:00,
2013-09-18 15:48:00,70.6,47.6,30.17,SW,227,0.0,0.0,44,0.00,,,0.00,LWC V2.11 B50,2013-09-18 19:48:00,
2013-09-18 15:53:00,70.4,47.4,30.17,West,259,0.0,0.0,44,0.00,,,0.00,LWC V2.11 B50,2013-09-18 19:53:00,
2013-09-18 15:58:00,70.3,49.7,30.17,West,271,0.0,0.0,48,0.00,,,0.00,LWC V2.11 B50,2013-09-18 19:58:00,
2013-09-18 16:03:00,70.6,47.0,30.17,SW,229,0.0,0.0,43,0.00,,,0.00,LWC V2.11 B50,2013-09-18 20:03:00,
2013-09-18 16:08:00,70.6,47.0,30.17,SW,217,0.0,0.0,43,0.00,,,0.00,LWC V2.11 B50,2013-09-18 20:08:00,
2013-09-18 16:13:00,70.6,47.0,30.16,SW,217,0.0,0.0,43,0.00,,,0.00,LWC V2.11 B50,2013-09-18 20:13:00,
2013-09-18 16:18:00,70.7,47.1,30.16,SW,217,0.0,0.0,43,0.00,,,0.00,LWC V2.11 B50,2013-09-18 20:18:00,
2013-09-18 16:23:00,71.0,48.0,30.16,SW,217,0.0,0.0,44,0.00,,,0.00,LWC V2.11 B50,2013-09-18 20:23:00,
2013-09-18 16:28:00,71.0,47.4,30.16,SW,217,0.0,0.0,43,0.00,,,0.00,LWC V2.11 B50,2013-09-18 20:28:00,
2013-09-18 16:33:00,71.0,47.4,30.16,SW,219,0.0,5.0,43,0.00,,,0.00,LWC V2.11 B50,2013-09-18 20:33:00,
2013-09-18 16:38:00,70.9,46.7,30.16,SW,219,0.0,0.0,42,0.00,,,0.00,LWC V2.11 B50,2013-09-18 20:38:00,
2013-09-18 16:43:00,71.1,47.5,30.16,SW,219,0.0,0.0,43,0.00,,,0.00,LWC V2.11 B50,2013-09-18 20:43:00,
2013-09-18 16:48:00,71.1,48.1,30.16,SW,222,0.0,4.0,44,0.00,,,0.00,LWC V2.11 B50,2013-09-18 20:48:00,
2013-09-18 16:53:00,70.7,47.1,30.16,SW,225,0.0,4.0,43,0.00,,,0.00,LWC V2.11 B50,2013-09-18 20:53:00,
2013-09-18 16:58:00,70.1,46.6,30.16,SW,220,0.0,0.0,43,0.00,,,0.00,LWC V2.11 B50,2013-09-18 20:58:00,
2013-09-18 17:03:00,70.1,47.8,30.16,SW,230,0.0,0.0,45,0.00,,,0.00,LWC V2.11 B50,2013-09-18 21:03:00,
2013-09-18 17:08:00,69.8,46.9,30.16,SW,219,0.0,2.0,44,0.00,,,0.00,LWC V2.11 B50,2013-09-18 21:08:00,
2013-09-18 17:13:00,69.5,46.6,30.16,WSW,241,0.0,1.0,44,0.00,,,0.00,LWC V2.11 B50,2013-09-18 21:13:00,
2013-09-18 17:18:00,69.4,46.5,30.16,SW,219,0.0,0.0,44,0.00,,,0.00,LWC V2.11 B50,2013-09-18 21:18:00,
2013-09-18 17:23:00,69.3,45.8,30.16,SW,221,1.0,2.0,43,0.00,,,0.00,LWC V2.11 B50,2013-09-18 21:23:00,
2013-09-18 17:28:00,69.0,45.6,30.16,WSW,252,0.0,2.0,43,0.00,,,0.00,LWC V2.11 B50,2013-09-18 21:28:00,
2013-09-18 17:33:00,68.6,45.2,30.16,SW,228,0.0,0.0,43,0.00,,,0.00,LWC V2.11 B50,2013-09-18 21:33:00,
2013-09-18 17:38:00,68.2,45.4,30.16,SW,225,0.0,0.0,44,0.00,,,0.00,LWC V2.11 B50,2013-09-18 21:38:00,
2013-09-18 17:44:00,68.1,45.4,30.16,WSW,241,0.0,0.0,44,0.00,,,0.00,LWC V2.11 B50,2013-09-18 21:44:00,
2013-09-18 17:49:00,67.9,45.8,30.15,SW,232,0.0,0.0,45,0.00,,,0.00,LWC V2.11 B50,2013-09-18 21:49:00,
2013-09-18 17:54:00,67.7,45.6,30.15,SW,229,0.0,0.0,45,0.00,,,0.00,LWC V2.11 B50,2013-09-18 21:54:00,
2013-09-18 17:59:00,67.6,45.5,30.15,SW,230,0.0,0.0,45,0.00,,,0.00,LWC V2.11 B50,2013-09-18 21:59:00,
2013-09-18 18:04:00,67.5,45.4,30.15,SW,230,0.0,0.0,45,0.00,,,0.00,LWC V2.11 B50,2013-09-18 22:04:00,
2013-09-18 18:09:00,67.3,45.8,30.15,SW,230,0.0,0.0,46,0.00,,,0.00,LWC V2.11 B50,2013-09-18 22:09:00,
2013-09-18 18:14:00,67.1,46.2,30.15,SW,230,0.0,0.0,47,0.00,,,0.00,LWC V2.11 B50,2013-09-18 22:14:00,
2013-09-18 18:19:00,67.0,46.1,30.15,SW,229,0.0,0.0,47,0.00,,,0.00,LWC V2.11 B50,2013-09-18 22:19:00,
2013-09-18 18:24:00,66.8,46.5,30.15,SW,229,0.0,0.0,48,0.00,,,0.00,LWC V2.11 B50,2013-09-18 22:24:00,
2013-09-18 18:29:00,66.6,46.3,30.15,SW,229,0.0,0.0,48,0.00,,,0.00,LWC V2.11 B50,2013-09-18 22:29:00,
2013-09-18 18:34:00,66.3,46.6,30.15,SW,229,0.0,0.0,49,0.00,,,0.00,LWC V2.11 B50,2013-09-18 22:34:00,
2013-09-18 18:39:00,65.9,46.2,30.15,SW,229,0.0,0.0,49,0.00,,,0.00,LWC V2.11 B50,2013-09-18 22:39:00,
2013-09-18 18:44:00,65.7,46.0,30.15,SW,229,0.0,0.0,49,0.00,,,0.00,LWC V2.11 B50,2013-09-18 22:44:00,
2013-09-18 18:49:00,65.4,47.8,30.15,SW,229,0.0,0.0,53,0.00,,,0.00,LWC V2.11 B50,2013-09-18 22:49:00,
2013-09-18 18:54:00,65.0,47.9,30.15,SW,229,0.0,0.0,54,0.00,,,0.00,LWC V2.11 B50,2013-09-18 22:54:00,
2013-09-18 18:59:00,64.4,50.2,30.15,SW,229,0.0,0.0,60,0.00,,,0.00,LWC V2.11 B50,2013-09-18 22:59:00,
2013-09-18 19:04:00,63.5,50.2,30.15,SW,229,0.0,0.0,62,0.00,,,0.00,LWC V2.11 B50,2013-09-18 23:04:00,
2013-09-18 19:09:00,62.5,48.9,30.15,SW,229,0.0,0.0,61,0.00,,,0.00,LWC V2.11 B50,2013-09-18 23:09:00,
2013-09-18 19:14:00,61.6,48.9,30.15,SW,229,0.0,0.0,63,0.00,,,0.00,LWC V2.11 B50,2013-09-18 23:14:00,
2013-09-18 19:19:00,60.7,48.4,30.15,SW,229,0.0,0.0,64,0.00,,,0.00,LWC V2.11 B50,2013-09-18 23:19:00,
2013-09-18 19:24:00,59.9,48.5,30.15,SW,229,0.0,0.0,66,0.00,,,0.00,LWC V2.11 B50,2013-09-18 23:24:00,
2013-09-18 19:29:00,59.1,47.8,30.15,SW,229,0.0,0.0,66,0.00,,,0.00,LWC V2.11 B50,2013-09-18 23:29:00,
2013-09-18 19:34:00,58.3,47.8,30.15,SW,229,0.0,0.0,68,0.00,,,0.00,LWC V2.11 B50,2013-09-18 23:34:00,
2013-09-18 19:40:00,57.7,48.0,30.15,SW,229,0.0,0.0,70,0.00,,,0.00,LWC V2.11 B50,2013-09-18 23:40:00,
2013-09-18 19:45:00,57.0,47.7,30.15,SW,229,0.0,0.0,71,0.00,,,0.00,LWC V2.11 B50,2013-09-18 23:45:00,
2013-09-18 19:50:00,56.4,48.2,30.15,SW,229,0.0,0.0,74,0.00,,,0.00,LWC V2.11 B50,2013-09-18 23:50:00,
2013-09-18 19:55:00,55.9,48.1,30.15,SW,229,0.0,0.0,75,0.00,,,0.00,LWC V2.11 B50,2013-09-18 23:55:00,
2013-09-18 20:00:00,55.4,48.0,30.15,SW,229,0.0,0.0,76,0.00,,,0.00,LWC V2.11 B50,2013-09-19 00:00:00,
2013-09-18 20:05:00,55.0,47.9,30.15,SW,229,0.0,0.0,77,0.00,,,0.00,LWC V2.11 B50,2013-09-19 00:05:00,
2013-09-18 20:10:00,54.5,47.8,30.15,SW,229,0.0,0.0,78,0.00,,,0.00,LWC V2.11 B50,2013-09-19 00:10:00,
2013-09-18 20:15:00,54.1,47.7,30.15,SW,229,0.0,0.0,79,0.00,,,0.00,LWC V2.11 B50,2013-09-19 00:15:00,
2013-09-18 20:20:00,53.9,47.9,30.15,SW,229,0.0,0.0,80,0.00,,,0.00,LWC V2.11 B50,2013-09-19 00:20:00,
2013-09-18 20:25:00,53.6,47.9,30.15,SW,229,0.0,0.0,81,0.00,,,0.00,LWC V2.11 B50,2013-09-19 00:25:00,
2013-09-18 20:30:00,53.3,47.9,30.16,SW,229,0.0,0.0,82,0.00,,,0.00,LWC V2.11 B50,2013-09-19 00:30:00,
2013-09-18 20:35:00,53.0,47.7,30.16,SW,229,0.0,0.0,82,0.00,,,0.00,LWC V2.11 B50,2013-09-19 00:35:00,
2013-09-18 20:40:00,52.7,47.7,30.16,SW,229,0.0,0.0,83,0.00,,,0.00,LWC V2.11 B50,2013-09-19 00:40:00,
2013-09-18 20:45:00,52.4,47.7,30.16,SW,229,0.0,0.0,84,0.00,,,0.00,LWC V2.11 B50,2013-09-19 00:45:00,
2013-09-18 20:50:00,52.2,47.5,30.16,SW,229,0.0,0.0,84,0.00,,,0.00,LWC V2.11 B50,2013-09-19 00:50:00,
2013-09-18 20:55:00,52.0,47.6,30.16,SW,229,0.0,0.0,85,0.00,,,0.00,LWC V2.11 B50,2013-09-19 00:55:00,
2013-09-18 21:00:00,51.8,47.4,30.16,SW,229,0.0,0.0,85,0.00,,,0.00,LWC V2.11 B50,2013-09-19 01:00:00,
2013-09-18 21:05:00,51.7,47.6,30.16,SW,229,0.0,0.0,86,0.00,,,0.00,LWC V2.11 B50,2013-09-19 01:05:00,
2013-09-18 21:10:00,51.5,47.5,30.16,SW,229,0.0,0.0,86,0.00,,,0.00,LWC V2.11 B50,2013-09-19 01:10:00,
2013-09-18 21:15:00,51.3,47.3,30.16,SW,229,0.0,0.0,86,0.00,,,0.00,LWC V2.11 B50,2013-09-19 01:15:00,
2013-09-18 21:21:00,51.1,47.4,30.16,SW,229,0.0,0.0,87,0.00,,,0.00,LWC V2.11 B50,2013-09-19 01:21:00,
2013-09-18 21:26:00,50.9,47.2,30.16,SW,229,0.0,0.0,87,0.00,,,0.00,LWC V2.11 B50,2013-09-19 01:26:00,
2013-09-18 21:31:00,50.7,47.0,30.16,SW,229,0.0,0.0,87,0.00,,,0.00,LWC V2.11 B50,2013-09-19 01:31:00,
2013-09-18 21:36:00,50.6,46.9,30.16,SW,229,0.0,0.0,87,0.00,,,0.00,LWC V2.11 B50,2013-09-19 01:36:00,
2013-09-18 21:41:00,50.4,46.7,30.16,SW,229,0.0,0.0,87,0.00,,,0.00,LWC V2.11 B50,2013-09-19 01:41:00,
2013-09-18 21:46:00,50.3,46.6,30.16,SW,229,0.0,0.0,87,0.00,,,0.00,LWC V2.11 B50,2013-09-19 01:46:00,
2013-09-18 21:51:00,50.2,46.8,30.16,SW,229,0.0,0.0,88,0.00,,,0.00,LWC V2.11 B50,2013-09-19 01:51:00,
2013-09-18 21:56:00,50.1,46.7,30.16,SW,229,0.0,0.0,88,0.00,,,0.00,LWC V2.11 B50,2013-09-19 01:56:00,
2013-09-18 22:01:00,50.0,46.6,30.16,SW,229,0.0,0.0,88,0.00,,,0.00,LWC V2.11 B50,2013-09-19 02:01:00,
2013-09-18 22:06:00,49.9,46.5,30.16,SW,229,0.0,0.0,88,0.00,,,0.00,LWC V2.11 B50,2013-09-19 02:06:00,
2013-09-18 22:11:00,49.9,46.5,30.16,SW,229,0.0,0.0,88,0.00,,,0.00,LWC V2.11 B50,2013-09-19 02:11:00,
2013-09-18 22:16:00,49.7,46.3,30.16,SW,229,0.0,0.0,88,0.00,,,0.00,LWC V2.11 B50,2013-09-19 02:16:00,
2013-09-18 22:21:00,49.6,47.4,30.16,SW,229,0.0,0.0,92,0.00,,,0.00,LWC V2.11 B50,2013-09-19 02:21:00,
2013-09-18 22:26:00,49.5,46.1,30.16,SW,229,0.0,0.0,88,0.00,,,0.00,LWC V2.11 B50,2013-09-19 02:26:00,
2013-09-18 22:31:00,49.5,46.4,30.16,SW,229,0.0,0.0,89,0.00,,,0.00,LWC V2.11 B50,2013-09-19 02:31:00,
2013-09-18 22:36:00,49.4,46.3,30.16,SW,229,0.0,0.0,89,0.00,,,0.00,LWC V2.11 B50,2013-09-19 02:36:00,
2013-09-18 22:41:00,49.4,46.3,30.16,SW,229,0.0,0.0,89,0.00,,,0.00,LWC V2.11 B50,2013-09-19 02:41:00,
2013-09-18 22:46:00,49.6,46.5,30.16,SW,229,0.0,0.0,89,0.00,,,0.00,LWC V2.11 B50,2013-09-19 02:46:00,
2013-09-18 22:51:00,49.7,46.6,30.16,SW,229,0.0,0.0,89,0.00,,,0.00,LWC V2.11 B50,2013-09-19 02:51:00,
2013-09-18 22:56:00,49.6,46.5,30.16,SW,229,0.0,0.0,89,0.00,,,0.00,LWC V2.11 B50,2013-09-19 02:56:00,
2013-09-18 23:01:00,49.5,46.1,30.16,SW,229,0.0,0.0,88,0.00,,,0.00,LWC V2.11 B50,2013-09-19 03:01:00,
2013-09-18 23:06:00,49.3,45.9,30.16,SW,229,0.0,0.0,88,0.00,,,0.00,LWC V2.11 B50,2013-09-19 03:06:00,
2013-09-18 23:11:00,49.2,46.1,30.16,SW,229,0.0,0.0,89,0.00,,,0.00,LWC V2.11 B50,2013-09-19 03:11:00,
2013-09-18 23:16:00,49.1,46.0,30.16,SW,229,0.0,0.0,89,0.00,,,0.00,LWC V2.11 B50,2013-09-19 03:16:00,
2013-09-18 23:21:00,49.1,46.0,30.16,SW,229,0.0,0.0,89,0.00,,,0.00,LWC V2.11 B50,2013-09-19 03:21:00,
2013-09-18 23:26:00,49.1,46.0,30.16,SW,229,0.0,0.0,89,0.00,,,0.00,LWC V2.11 B50,2013-09-19 03:26:00,
2013-09-18 23:31:00,49.1,46.0,30.16,SW,229,0.0,0.0,89,0.00,,,0.00,LWC V2.11 B50,2013-09-19 03:31:00,
2013-09-18 23:37:00,49.0,45.9,30.15,SW,229,0.0,0.0,89,0.00,,,0.00,LWC V2.11 B50,2013-09-19 03:37:00,
2013-09-18 23:42:00,48.8,45.7,30.15,SW,229,0.0,0.0,89,0.00,,,0.00,LWC V2.11 B50,2013-09-19 03:42:00,
2013-09-18 23:47:00,48.7,45.6,30.15,SW,229,0.0,0.0,89,0.00,,,0.00,LWC V2.11 B50,2013-09-19 03:47:00,
2013-09-18 23:52:00,48.4,45.3,30.16,SW,229,0.0,0.0,89,0.00,,,0.00,LWC V2.11 B50,2013-09-19 03:52:00,
2013-09-18 23:57:00,48.1,45.0,30.16,SW,229,0.0,0.0,89,0.00,,,0.00,LWC V2.11 B50,2013-09-19 03:57:00,